Regional Weather Roundup
Issued by NWS Glasgow, MT

Home | Current Version | Previous Version | Text Only | Print | Product List | Glossary On
Versions: 1 2 3 4 5 6 7 8 9 10 11 12 13 14 15 16 17 18 19 20 21 22 23 24 25 26 27 28 29 30 31 32 33 34 35 36 37 38 39 40 41 42 43 44 45 46 47 48 49 50
000
ASUS45 KGGW 300915
RWRGGW
HOURLY REGIONAL WEATHER ROUNDUP FOR NORTHEAST MONTANA
NATIONAL WEATHER SERVICE GLASGOW MONTANA
300 AM MDT TUE MAY 30 2017

NOTE: "FAIR" INDICATES FEW OR NO CLOUDS BELOW 12,000 FEET WITH NO
SIGNIFICANT WEATHER AND/OR OBSTRUCTIONS TO VISISBILITY.

NORTHEAST MONTANA


CITY           SKY/WX    TMP DP  RH WIND       PRES   REMARKS
GLASGOW        CLEAR     44  26  49 NE5       30.12R
PLENTYWOOD       N/A     43  30  60 NE8         N/A
WOLF POINT     CLEAR     39  29  67 SW3       30.11S
JORDAN           N/A     38  27  64 W5        30.12S
WINNETT          N/A     35  32  88 SW1         N/A
SIDNEY         CLEAR     45  28  51 NW6       30.09
GLENDIVE       CLEAR     40  28  62 NW7       30.11S
MALTA            N/A     40  32  73 CALM        N/A
SCOBEY           N/A     32  21  64 CALM      30.10R
OPHEIM           N/A     45  27  49 N2        29.97

FORT PECK REPORTS


CITY           SKY/WX    TMP DP  RH WIND       PRES   REMARKS
FORT PECK        N/A     47  29  49 SW1         N/A
THE PINES        N/A     49  35  58 CALM        N/A

SOUTHEAST MONTANA


CITY           SKY/WX    TMP DP  RH WIND       PRES   REMARKS
BILLINGS       CLEAR     55  36  48 N5        30.12F
MILES CITY     CLEAR     43  27  53 NW6       30.11S
BAKER          CLEAR     38  29  70 CALM      30.11S
LIVINGSTON     CLEAR     44  41  89 VRB3      30.16S

CENTRAL MONTANA


CITY           SKY/WX    TMP DP  RH WIND       PRES   REMARKS
HAVRE          CLEAR     48  34  58 NE5       30.11S
LEWISTOWN      CLEAR     43  37  79 SE7       30.14S
GREAT FALLS    CLOUDY    53  46  77 SW5       30.10S
CUT BANK       CLEAR     51  36  56 E8        30.12S
HELENA         CLEAR     54  42  64 NW5       30.11R
BUTTE          CLEAR     44  37  76 E3        30.18S
BOZEMAN        CLEAR     49  39  68 S7        30.14S

WESTERN MONTANA


CITY           SKY/WX    TMP DP  RH WIND       PRES   REMARKS
MISSOULA       CLEAR     54  42  64 N3        30.07R
KALISPELL      NOT AVBL

NORTH DAKOTA


CITY           SKY/WX    TMP DP  RH WIND       PRES   REMARKS
WILLISTON      CLEAR     40  30  67 N6        30.09R
DICKINSON      CLEAR     38  28  67 NW7       30.05S
MINOT          CLEAR     44  39  82 NW12      30.04S
BISMARCK       CLEAR     42  37  82 NW6       30.05R

SOUTHERN SASKATCHEWAN


CITY           SKY/WX    TMP DP  RH WIND       PRES   REMARKS
REGINA         NOT AVBL
ESTEVAN        PTCLDY    37  34  87 NW8       30.09S
SWIFT CURRENT  CLEAR     39  25  56 SE6       30.13F




USA.gov is the U.S. government's official web portal to all federal, state and local government web resources and services.